STSAT-2C (39068 NORAD) Tracking and Keplerian Element Data

This shows tracking and keplerian element data for the satellite.

Feedback or suggestion? Click here.




ElementValue
Catalog39068
NameSTSAT-2C
Epoch Orbit36863
Epoch Day316.83475344
Epoch Year2019
RAAN354.2078
Inclination80.1354
Eccentricity0.0013524
Argument of Perigee288.4311
Mean Anonmoly71.5514
Mean Motion16.49540072
Decay Rate0.11474664
L11 39068U 13003A 19316.83475344 .11474664 -72442-6 13058-3 0 9990
L22 39068 80.1354 354.2078 0013524 288.4311 71.5514 16.49540072368637



Live tracking and technical data element details for STSAT-2C (NORAD 39068). STSAT-2C can be tracked NOW for your location showing map with azimuth and elevation plus other details from your city location.







IsCatalogInMostPopularTable: catalog: 39068, numindb: 595
Update: records affected: 1



GetName: 39068 STSAT-2C

Hit Count: updated at: Mon, 17 Jun 2024 22:03:04 GMT